FENGYUN 1C DEB, 30720

Orbit data source: Space-Track

FENGYUN 1C DEB, 30720 is space debris in SSO originally from a launch on Mon, 10 May 1999 UTC launched from the Taiyaun Space Center, China (TSC). Fengyun 1C debris stems from the Chinese weather satellite Fengyun-1C, which was intentionally destroyed by a Chinese anti-satellite missile in 2007. This event dramatically increased the amount of space debris, with thousands of trackable fragments posing hazards to satellites and human spaceflight. The Fengyun 1C debris cloud has become a focal point in discussions about space sustainability and the need for international regulations to prevent the creation of new debris.

Loading next visibility...
Identifier
30720, 1999-025ASE
Orbit
SSO
Country
Flag of CNCN / PRC
Related business
Manufacturer
Unknown
Mission
Spacecraft
Bus & Motor
Unknown
Mass
Unknown
Launch date (UTC)
1999-05-10 (27 years ago)
Launch vehicle
Unknown
Launch site
Taiyaun Space Center, China (TSC)
Object type
Payload
Rocket body
Debris
Shape & HBR
Unknown shape, 0.1 m
Radar Cross Section
Small (<0.1 m²)

Expand to show TLE details & history
Last TLE update: 1 day ago

TLE from 1 day ago
0 FENGYUN 1C DEB
1 30720U 99025ASE 26174.97316150  .00001258  00000-0  50447-3 0  9998
2 30720  99.0453   0.7312 0032493 127.9693  29.1610 14.29847884  2113
Epoch: 2026-06-23T23:21Z
TLE epoch observation values (Epoch: 2026-06-23T23:21:21.153Z)
Latitude
22.40698°
Longitude
-78.00058°
Altitude
774.634 km
Speed
7.479 km/s
True Right ascension
12h 17m 53s
True Declination
22° 17' 11"
Sunlit
Object was in daylight at epoch
Visualization orbit readout
Latitude
Unknown
Longitude
Unknown
Altitude
Unknown
Speed
Unknown
Apparent Right ascension
Unknown
Apparent Declination
Unknown
Sunlit
N/A
Visualization observer readout
Local Sidereal Time
22:30:34
Azimuth
Unknown
Elevation
Unknown
Doppler factor
Unknown
Orbital elements
Apogee altitude
812.691 km
Perigee altitude
766.112 km
Semi-major axis
7,167.538 km
Eccentricity
0.00325
Inclination
99.0453°
RAAN
0.7312°
Arg. of periapsis
127.9693°
True anomaly
29.34307°
Mean anomaly
29.161°
Eccentric anomaly
29.25197°
Mean motion
3.57675 °/min
Orbital period
100.65 mins
BSTAR
0.00050447
Loading maneuver chart data...
Computing Atmospheric mass density...

Documentation

Showing up to 5 results
|